Location: 22
(39.7117°N, 89.5929°W)
Time: 06:03:10
(UTC-05:00)

Vanguard 1 Rocket - Pass Details

Date: 09 February 2023
Orbit: 652 x 4223 km, 34.3° (Epoch: 26 March)

Event Time Altitude Azimuth Distance (km) Brightness Sun altitude
Rises 11:34:16 0° 249° (WSW) 3,875 10.7 35.0°
Reaches altitude 10° 11:36:25 10° 246° (WSW) 3,179 10.4 35.1°
Maximum altitude 11:44:25 64° 167° (SSE) 2,010 10.5 35.3°
Drops below altitude 10° 12:00:26 10° 91° (E) 6,019 11.7 35.6°
Sets 12:06:19 0° 89° (E) 7,548 12.1 35.7°
